Rbgn^[z[y[W
メイン
   新天体発見情報
     Comet P/2020 F1 (Leonard)
投稿するにはまず登録を

スレッド表示 | 新しいものから 前のトピック | 次のトピック | 下へ
投稿者 スレッド
佐藤裕久
投稿日時: 2020-3-31 19:21
モデレータ
登録日: 2005-6-12
居住地: 日本
投稿: 2111
オンライン
Comet P/2020 F1 (Leonard)

Comet P/2020 F1 (Leonard)

Gregory J. Leonardの通報によると、3月16.3日UT、Mt Lemmonサーベイの1.5-m反射望遠鏡で得た
CCD画像から彗星を発見した。この彗星は、2"のシーイングにおいて、4枚の30秒露出で約8"のコマ
とp.a. 280-300°に8"-10"の短く拡散した尾があると説明された。
小惑星センターのPCCP webpageに公表後、佐藤英貴氏(東京都文京区, iTelescope天文台, 3月17.5日
UT、60秒露出12枚のスタック, 0.51-m f/6.8 アストログラフ, Siding Spring, NSW, 
遠隔操作:強く集光した8" のコマがあるが尾はない。4".9の円形範囲で測定した光度は20.2等であっ
た)らCCD位置観測者によって彗星状と観測された。
3月20日、R. Werykの報告では、彼が、Pan-STARRS 1 (F51)とPan-STARRS 2 (F52)で得た幾つかの発見
前の画像を見つけた。6"-15"の尾が見えている。

彗星機能の追加報告は次の通り:

OC   Date        Reporter           Coma    Tail    PA          Exposures
Q62  2020-03-17  H. Sato              8"                        12x60s
204  2020-03-18  A. Aletti            4"     7"     312
Q63  2020-03-18  P. Breitenstein      1"    10"     290         3x120s
Q64  2020-03-18  P. Breitenstein      1"    10"     290         4x120s
204  2020-03-19  L. Buzzi             5"     7"     310

発見位置は次のとおり、

     2019 UT             R.A. (2000) Decl.       Mag.   Observer
     Oct. 31.43368    5 47 29.43   -10 41 40.3   20.5   Kowalski
          31.43880    5 47 29.28   -10 41 45.6   20.6     "
          31.44390    5 47 29.19   -10 41 50.2   20.4     "
          31.44901    5 47 29.06   -10 41 55.4   20.8     "

MPCの楕円軌道要素と位置推算表は次のとおり、

Orbital elements:
    P/2020 F1 (Leonard)                                                         
Epoch 2019 Aug. 25.0 TT = JDT 2458720.5                                         
T 2019 Aug. 29.32327 TT                                 Rudenko                 
q   3.9831462            (2000.0)            P               Q                  
n   0.05519020     Peri.    8.70323     -0.82226104     -0.56538437             
a   6.8322130      Node   136.65559     +0.51628153     -0.78911821             
e   0.4170050      Incl.    5.43551     +0.23945808     -0.24006866             
P  17.9                                                                         
From 85 observations 2019 Jan. 3-2020 Mar. 21, mean residual 0".5.              
                                                                                
    P/2020 F1 (Leonard)                                                         
Epoch 2037 May 22.0 TT = JDT 2465200.5                                          
T 2037 June 5.54985 TT                                  Rudenko                 
q   3.9697377            (2000.0)            P               Q                  
n   0.05590154     Peri.    9.28114     -0.82466300     -0.56181237             
a   6.7741300      Node   136.32418     +0.51266991     -0.79138465             
e   0.4139856      Incl.    5.44738     +0.23895709     -0.24099211             
P  17.6                                                                         
From 85 observations 2019 Jan. 3-2020 Mar. 21, mean residual 0".5.              
                                                                                
    P/2020 F1 (Leonard)                                                         
Epoch 2020 May 31.0 TT = JDT 2459000.5                                          
T 2019 Aug. 29.16316 TT                                 Rudenko                 
q   3.9830698            (2000.0)            P               Q                  
n   0.05526387     Peri.    8.67983     -0.82206359     -0.56567106             
a   6.8261401      Node   136.65897     +0.51655867     -0.78894142             
e   0.4164975      Incl.    5.43611     +0.23953829     -0.23997434             
P  17.8                                                                         
From 85 observations 2019 Jan. 3-2020 Mar. 21, mean residual 0".5.              
                                                                                
Ephemeris:
Date    TT    R. A. (2000) Decl.     Delta      r    Elong.  Phase   m1
2020 02 25    11 51 57.6 +05 14 28   3.1653  4.1052   159.1     4.9  20.6
...
2020 03 11    11 45 18.1 +06 15 10   3.1360  4.1258   174.5     1.3  20.6
...
2020 03 19    11 41 28.5 +06 46 46   3.1475  4.1374   173.0     1.7  20.7
...
2020 03 25    11 38 40.1 +07 08 48   3.1686  4.1463   167.0     3.1  20.7
2020 03 26    11 38 12.8 +07 12 16   3.1731  4.1478   165.9     3.4  20.7
2020 03 27    11 37 45.9 +07 15 41   3.1779  4.1493   164.8     3.6  20.7
...
2020 04 02    11 35 12.2 +07 34 41   3.2128  4.1586   158.4     5.1  20.7
...
2020 04 10    11 32 14.9 +07 55 31   3.2743  4.1712   149.9     6.9  20.8
...
2020 04 25    11 28 35.7 +08 18 25   3.4305  4.1960   134.4     9.9  20.9

(MPEC 2020-F144、4736)

スレッド表示 | 新しいものから 前のトピック | 次のトピック | トップ

投稿するにはまず登録を
 
© 1999 Tsutomu Seki.